LRC652 MGGT-KJFK

Flight info

Callsign LRC652
Flight time N/A
Altitude 33000
Route TIKIS2B TIKIS UG765 CZM UB881 CUN DCT ROTGI UM219 MYDIA M219 CIGAR/N0462F350 M215 KNOST Q109 CAMJO DCT ENEME DCT VIYAP Q87 JROSS Q135 RREGG Q117 SAWED DCT KALDA Q108 SIE CAMRN5
Aircraft A320/M-SDE3FGHIRWY/LB1

Departure

Time 2026-04-30 01:18
Airport La Aurora International Airport (MGGT)

Arrival

Time N/A
Airport John F. Kennedy International Airport (KJFK)
Time Latitude Longitude Altitude Speed Heading
2026-04-30 01:02 14.58893 -90.52897 4905 ft 0 kts 293°
2026-04-30 01:07 14.58892 -90.52894 4905 ft 2 kts 294°
2026-04-30 01:08 14.58886 -90.52880 4905 ft 2 kts 293°
2026-04-30 01:08 14.58880 -90.52866 4905 ft 2 kts 294°
2026-04-30 01:08 14.58874 -90.52852 4905 ft 2 kts 293°
2026-04-30 01:08 14.58868 -90.52837 4905 ft 2 kts 294°
2026-04-30 01:09 14.58863 -90.52823 4905 ft 2 kts 271°
2026-04-30 01:09 14.58865 -90.52807 4905 ft 2 kts 249°
2026-04-30 01:09 14.58873 -90.52794 4905 ft 2 kts 224°
2026-04-30 01:09 14.58885 -90.52786 4905 ft 2 kts 200°
2026-04-30 01:10 14.58899 -90.52782 4905 ft 2 kts 197°
2026-04-30 01:10 14.58913 -90.52776 4904 ft 2 kts 197°
2026-04-30 01:10 14.58920 -90.52774 4904 ft 0 kts 197°
2026-04-30 01:13 14.58915 -90.52776 4904 ft 2 kts 197°
2026-04-30 01:13 14.58878 -90.52782 4905 ft 8 kts 179°
2026-04-30 01:13 14.58807 -90.52743 4901 ft 13 kts 131°
2026-04-30 01:13 14.58784 -90.52697 4898 ft 2 kts 109°
2026-04-30 01:14 14.58788 -90.52675 4898 ft 4 kts 52°
2026-04-30 01:14 14.58830 -90.52655 4901 ft 9 kts 17°
2026-04-30 01:14 14.58907 -90.52631 4904 ft 12 kts 17°
2026-04-30 01:14 14.58991 -90.52604 4908 ft 12 kts 17°
2026-04-30 01:15 14.59077 -90.52576 4911 ft 13 kts 18°
2026-04-30 01:15 14.59163 -90.52548 4914 ft 12 kts 18°
2026-04-30 01:15 14.59248 -90.52522 4918 ft 12 kts 18°
2026-04-30 01:15 14.59328 -90.52495 4924 ft 10 kts 18°
2026-04-30 01:16 14.59384 -90.52477 4928 ft 7 kts 17°
2026-04-30 01:16 14.59459 -90.52453 4931 ft 14 kts 17°
2026-04-30 01:16 14.59549 -90.52424 4935 ft 11 kts 17°
2026-04-30 01:16 14.59587 -90.52370 4935 ft 10 kts 105°
2026-04-30 01:17 14.59508 -90.52367 4931 ft 15 kts 198°
2026-04-30 01:17 14.59252 -90.52450 4920 ft 73 kts 197°
2026-04-30 01:17 14.58523 -90.52684 4886 ft 140 kts 198°
2026-04-30 01:17 14.57447 -90.53029 5089 ft 170 kts 198°
2026-04-30 01:18 14.56313 -90.53410 5642 ft 176 kts 198°
2026-04-30 01:18 14.55142 -90.53828 6240 ft 182 kts 197°
2026-04-30 01:18 14.53949 -90.54213 6892 ft 177 kts 195°
2026-04-30 01:18 14.52743 -90.54576 7120 ft 186 kts 196°
2026-04-30 01:19 14.51463 -90.54966 7322 ft 196 kts 194°
2026-04-30 01:19 14.50047 -90.55140 7526 ft 209 kts 178°
2026-04-30 01:19 14.48573 -90.54874 7781 ft 222 kts 161°
2026-04-30 01:19 14.47139 -90.54114 7966 ft 244 kts 142°
2026-04-30 01:20 14.45919 -90.52802 8353 ft 260 kts 127°
2026-04-30 01:20 14.44823 -90.51266 8842 ft 275 kts 125°
2026-04-30 01:20 14.43667 -90.49590 9265 ft 286 kts 122°
2026-04-30 01:20 14.42758 -90.47742 9803 ft 293 kts 110°
2026-04-30 01:21 14.42259 -90.45701 10322 ft 297 kts 97°
2026-04-30 01:21 14.42218 -90.43553 10749 ft 301 kts 84°
2026-04-30 01:21 14.42644 -90.41456 11200 ft 305 kts 71°
2026-04-30 01:21 14.43530 -90.39497 11760 ft 303 kts 57°
2026-04-30 01:22 14.44820 -90.37807 12382 ft 299 kts 44°
2026-04-30 01:22 14.46421 -90.36481 13013 ft 295 kts 32°
2026-04-30 01:22 14.48249 -90.35527 13628 ft 292 kts 25°
2026-04-30 01:22 14.50154 -90.34674 13874 ft 303 kts 25°
2026-04-30 01:23 14.52104 -90.33812 14072 ft 314 kts 25°
2026-04-30 01:23 14.54160 -90.32904 14268 ft 325 kts 25°
2026-04-30 01:23 14.56295 -90.31954 14470 ft 336 kts 25°
2026-04-30 01:23 14.58479 -90.30980 14664 ft 347 kts 25°
2026-04-30 01:24 14.60723 -90.29977 14819 ft 355 kts 25°
2026-04-30 01:24 14.63015 -90.28951 14988 ft 365 kts 25°
2026-04-30 01:24 14.65415 -90.27877 15171 ft 374 kts 25°
2026-04-30 01:24 14.67841 -90.26791 15478 ft 378 kts 25°
2026-04-30 01:25 14.70245 -90.25700 15840 ft 381 kts 26°
2026-04-30 01:25 14.72680 -90.24509 16211 ft 383 kts 27°
2026-04-30 01:25 14.75076 -90.23312 16597 ft 383 kts 27°
2026-04-30 01:25 14.77505 -90.22096 17005 ft 386 kts 27°
2026-04-30 01:26 14.79925 -90.20889 17419 ft 388 kts 27°
2026-04-30 01:26 14.82362 -90.19677 17836 ft 389 kts 27°
2026-04-30 01:26 14.84818 -90.18459 18233 ft 390 kts 26°
2026-04-30 01:26 14.87291 -90.17232 18650 ft 392 kts 26°
2026-04-30 01:27 14.89745 -90.16015 19045 ft 393 kts 26°
2026-04-30 01:27 14.92216 -90.14788 19435 ft 394 kts 26°
2026-04-30 01:27 14.94688 -90.13563 19844 ft 395 kts 26°
2026-04-30 01:27 14.97179 -90.12328 20213 ft 396 kts 26°
2026-04-30 01:28 14.99670 -90.11092 20561 ft 397 kts 26°
2026-04-30 01:28 15.02182 -90.09847 20919 ft 398 kts 26°
2026-04-30 01:28 15.04675 -90.08611 21283 ft 400 kts 26°
2026-04-30 01:28 15.07197 -90.07356 21654 ft 401 kts 26°
2026-04-30 01:29 15.09751 -90.06087 21855 ft 407 kts 26°
2026-04-30 01:29 15.12288 -90.04827 22110 ft 409 kts 26°
2026-04-30 01:29 15.14890 -90.03533 22413 ft 412 kts 26°
2026-04-30 01:29 15.17472 -90.02251 22755 ft 413 kts 26°
2026-04-30 01:30 15.20079 -90.00955 23071 ft 416 kts 26°
2026-04-30 01:30 15.22686 -89.99659 23334 ft 418 kts 26°
2026-04-30 01:30 15.25340 -89.98339 23595 ft 421 kts 26°
2026-04-30 01:30 15.27994 -89.97019 23860 ft 424 kts 26°
2026-04-30 01:31 15.30651 -89.95699 24132 ft 426 kts 26°
2026-04-30 01:31 15.33358 -89.94351 24375 ft 429 kts 26°
2026-04-30 01:31 15.36050 -89.93012 24627 ft 432 kts 26°
2026-04-30 01:31 15.38780 -89.91652 24908 ft 433 kts 26°
2026-04-30 01:32 15.41507 -89.90292 25151 ft 436 kts 26°
2026-04-30 01:32 15.44233 -89.88933 25403 ft 438 kts 26°
2026-04-30 01:32 15.47008 -89.87551 25628 ft 440 kts 26°
2026-04-30 01:32 15.49774 -89.86173 25837 ft 442 kts 26°
2026-04-30 01:33 15.52531 -89.84798 26051 ft 444 kts 26°
2026-04-30 01:33 15.55358 -89.83388 26235 ft 446 kts 26°
2026-04-30 01:33 15.58144 -89.81998 26492 ft 447 kts 26°
2026-04-30 01:33 15.60929 -89.80608 26803 ft 446 kts 26°
2026-04-30 01:34 15.63734 -89.79208 27083 ft 445 kts 26°
2026-04-30 01:34 15.66538 -89.77808 27342 ft 445 kts 26°
2026-04-30 01:34 15.69309 -89.76424 27591 ft 445 kts 26°
2026-04-30 01:34 15.72141 -89.75010 27846 ft 445 kts 26°
2026-04-30 01:35 15.74910 -89.73626 28123 ft 444 kts 26°
2026-04-30 01:35 15.77701 -89.72231 28387 ft 443 kts 26°
2026-04-30 01:35 15.80486 -89.70837 28643 ft 443 kts 27°
2026-04-30 01:35 15.83247 -89.69456 28875 ft 443 kts 26°
2026-04-30 01:36 15.86035 -89.68059 29134 ft 443 kts 27°
2026-04-30 01:36 15.88828 -89.66660 29447 ft 442 kts 27°
2026-04-30 01:36 15.91583 -89.65279 29736 ft 441 kts 26°
2026-04-30 01:36 15.94354 -89.63889 30001 ft 441 kts 26°
2026-04-30 01:37 15.97111 -89.62507 30265 ft 440 kts 26°
2026-04-30 01:37 15.99883 -89.61116 30520 ft 440 kts 26°
2026-04-30 01:37 16.02650 -89.59729 30779 ft 440 kts 26°
2026-04-30 01:37 16.05407 -89.58348 31048 ft 439 kts 26°
2026-04-30 01:38 16.08165 -89.56964 31287 ft 439 kts 26°
2026-04-30 01:38 16.10914 -89.55585 31476 ft 440 kts 26°
2026-04-30 01:38 16.13666 -89.54204 31674 ft 441 kts 26°
2026-04-30 01:38 16.16454 -89.52803 31868 ft 442 kts 26°
2026-04-30 01:39 16.19212 -89.51417 32046 ft 442 kts 26°
2026-04-30 01:39 16.22001 -89.50016 32196 ft 443 kts 26°
2026-04-30 01:39 16.24780 -89.48618 32346 ft 445 kts 26°
2026-04-30 01:39 16.27570 -89.47214 32501 ft 445 kts 26°
2026-04-30 01:40 16.30356 -89.45813 32624 ft 446 kts 26°
2026-04-30 01:40 16.33155 -89.44405 32762 ft 447 kts 26°
2026-04-30 01:40 16.35986 -89.42979 32892 ft 448 kts 26°
2026-04-30 01:40 16.38770 -89.41578 32938 ft 449 kts 26°
2026-04-30 01:41 16.44450 -89.38718 32948 ft 450 kts 26°
2026-04-30 01:41 16.50101 -89.35868 32952 ft 450 kts 26°
2026-04-30 01:42 16.55736 -89.33026 32955 ft 450 kts 27°
2026-04-30 01:42 16.61418 -89.30155 32964 ft 450 kts 27°
2026-04-30 01:43 16.67049 -89.27309 32962 ft 450 kts 27°
2026-04-30 01:43 16.72741 -89.24430 32965 ft 451 kts 27°
2026-04-30 01:44 16.78366 -89.21584 32964 ft 451 kts 27°
2026-04-30 01:44 16.84072 -89.18697 32963 ft 451 kts 27°
2026-04-30 01:45 16.89742 -89.15826 32959 ft 451 kts 27°
2026-04-30 01:45 16.95402 -89.12955 32962 ft 452 kts 27°